Weather History for KMCB - September, 2012

Change the Weather History Date:

Tuesday, September 4, 2012

  Actual Average Record
Temperature  
Mean Temperature 83 °F -  
Max Temperature 91 °F 88 °F 102 °F (2000)
Min Temperature 75 °F 67 °F 53 °F (1974)
Cooling Degree Days 18    
Growing Degree Days 33 (Base 50)    
Moisture  
Dew Point 75 °F    
Average Humidity 81    
Maximum Humidity 100    
Minimum Humidity 59    
Precipitation  
Precipitation 0.00 in - - ()
Sea Level Pressure  
Sea Level Pressure 29.93 in    
Wind  
Wind Speed 5 mph (West)    
Max Wind Speed 10 mph    
Max Gust Speed -    
Visibility 9 miles    
Events      
Averages and records for this station are not official NWS values.
T = Trace of Precipitation, MM = Missing Value Source: NWS Daily Summary

Daily Weather History Graph

Daily Weather History Graph

Search for Another Location

Airport or City:

Trip Planner

Search our weather history database for the weather conditions in past years. The results will help you decide how hot, cold, wet, or windy it might be!

Date:

Astronomy

Sep. 04, 2012 Rise Set
Actual Time 6:39 AM CDT 7:20 PM CDT
Civil Twilight 6:15 AM CDT 7:45 PM CDT
Nautical Twilight 5:46 AM CDT 8:14 PM CDT
Astronomical Twilight 5:17 AM CDT 8:43 PM CDT
Moon 9:36 PM CDT (9/4) 10:26 AM CDT (9/4)
Length of Visible Light 13h 30m
Length of Day
12h 40m
Waning Gibbous, 83% of the Moon is Illuminated
Sep 4
Waning Gibbous
Sep 8
Last Quarter
Sep 15
New
Sep 22
First Quarter
Sep 29
Full

Hourly Weather History & Observations

Time (CDT) Temp. Heat Index Dew Point Humidity Pressure Visibility Wind Dir Wind Speed Gust Speed Precip Events Conditions
12:53 AM 78.1 °F - 75.0 °F 90% 29.94 in 9.0 mi Calm Calm - N/A   Clear
1:53 AM 77.0 °F - 75.0 °F 94% 29.94 in 9.0 mi WSW 3.5 mph - N/A   Clear
2:53 AM 75.9 °F - 75.0 °F 97% 29.94 in 7.0 mi WSW 3.5 mph - N/A   Clear
3:38 AM 75.2 °F - 75.2 °F 100% 29.95 in 7.0 mi WSW 4.6 mph - N/A   Partly Cloudy
3:53 AM 75.9 °F - 75.0 °F 97% 29.93 in 6.0 mi WSW 3.5 mph - N/A   Mostly Cloudy
4:53 AM 75.9 °F - 75.0 °F 97% 29.92 in 7.0 mi WSW 5.8 mph - N/A   Mostly Cloudy
5:53 AM 75.9 °F - 75.0 °F 97% 29.93 in 8.0 mi WSW 6.9 mph - N/A   Overcast
6:45 AM 75.2 °F - 73.4 °F 94% 29.98 in 8.0 mi Calm Calm - N/A   Overcast
6:53 AM 75.9 °F - 73.9 °F 94% 29.97 in 7.0 mi Calm Calm - N/A   Overcast
7:25 AM 75.2 °F - 73.4 °F 94% 29.99 in 7.0 mi WSW 4.6 mph - N/A   Mostly Cloudy
7:46 AM 77.0 °F - 73.4 °F 89% 29.98 in 8.0 mi WSW 6.9 mph - N/A   Partly Cloudy
7:53 AM 77.0 °F - 75.0 °F 94% 29.96 in 7.0 mi West 5.8 mph - N/A   Partly Cloudy
8:43 AM 78.8 °F - 75.2 °F 89% 29.97 in 8.0 mi WSW 8.1 mph - N/A   Mostly Cloudy
8:53 AM 79.0 °F - 75.0 °F 88% 29.96 in 8.0 mi WSW 9.2 mph - N/A   Mostly Cloudy
9:38 AM 80.6 °F 85.4 °F 73.4 °F 79% 29.98 in 8.0 mi West 8.1 mph - N/A   Mostly Cloudy
9:53 AM 81.0 °F 86.2 °F 73.9 °F 79% 29.96 in 8.0 mi West 8.1 mph - N/A   Mostly Cloudy
10:04 AM 82.4 °F 89.5 °F 75.2 °F 79% 29.98 in 8.0 mi West 9.2 mph - N/A   Scattered Clouds
10:53 AM 84.9 °F 92.1 °F 73.9 °F 69% 29.96 in 10.0 mi West 6.9 mph - N/A   Partly Cloudy
11:53 AM 86.0 °F 93.8 °F 73.9 °F 67% 29.96 in 10.0 mi West 8.1 mph - N/A   Clear
12:24 PM 87.8 °F 97.6 °F 75.2 °F 66% 29.97 in 10.0 mi Variable 6.9 mph - N/A   Mostly Cloudy
12:53 PM 87.1 °F 95.4 °F 73.9 °F 65% 29.94 in 10.0 mi West 10.4 mph - N/A   Mostly Cloudy
1:28 PM 87.8 °F 97.6 °F 75.2 °F 66% 29.95 in 10.0 mi NW 8.1 mph - N/A   Scattered Clouds
1:53 PM 89.1 °F 99.1 °F 75.0 °F 63% 29.93 in 10.0 mi West 10.4 mph - N/A   Mostly Cloudy
2:53 PM 90.0 °F 100.2 °F 75.0 °F 61% 29.90 in 10.0 mi West 8.1 mph - N/A   Partly Cloudy
3:53 PM 91.0 °F 101.6 °F 75.0 °F 59% 29.88 in 10.0 mi WSW 9.2 mph - N/A   Scattered Clouds
4:53 PM 90.0 °F 100.2 °F 75.0 °F 61% 29.87 in 10.0 mi WNW 10.4 mph - N/A   Scattered Clouds
5:53 PM 89.1 °F 99.1 °F 75.0 °F 63% 29.87 in 10.0 mi West 9.2 mph - N/A   Clear
6:53 PM 86.0 °F 96.9 °F 77.0 °F 74% 29.88 in 10.0 mi West 4.6 mph - N/A   Clear
7:53 PM 84.0 °F 93.7 °F 77.0 °F 79% 29.88 in 10.0 mi Calm Calm - N/A   Clear
8:53 PM 82.0 °F 90.2 °F 77.0 °F 85% 29.88 in 10.0 mi WSW 3.5 mph - N/A   Clear
10:53 PM 80.1 °F 85.4 °F 75.9 °F 87% 29.88 in 10.0 mi Calm Calm - N/A   Clear
11:53 PM 78.1 °F - 75.0 °F 90% 29.87 in 9.0 mi Calm Calm - N/A   Clear